2019-071N (45123 NORAD) Tracking and Keplerian Element Data

This shows tracking and keplerian element data for the satellite.

Feedback or suggestion? Click here.




ElementValue
Catalog45123
Name2019-071N
Epoch Orbit807
Epoch Day87.14903236
Epoch Year2020
RAAN40.909
Inclination51.6439
Eccentricity0.0011127
Argument of Perigee89.562
Mean Anonmoly270.6636
Mean Motion15.33328577
Decay Rate2.191E-05
L11 45123U 19071N 20087.14903236 .00002191 00000-0 78480-4 0 9992
L22 45123 51.6439 40.9090 0011127 89.5620 270.6636 15.33328577 8078

Live tracking and technical data element details for 2019-071N (NORAD 45123). 2019-071N can be tracked NOW for your location showing map with azimuth and elevation plus other details from your city location.

Track the satellite on the map from your city or location and see movement details for azimuth, elevation, latitude, longitude, range, height, and movement on the map or in text.







IsCatalogInMostPopularTable: catalog: 45123, numindb: 10
Update: records affected: 1



GetName: 45123 2019-071N

Hit Count: updated at: Sat, 28 Mar 2020 20:06:34 GMT